Voltar ao catálogo

STARLINK-37582

AtivoComunicaçõesVLEO
NORAD 69363·PAYLOAD·🇺🇸 United States

Lançado Jun 4, 2026 de Cape Canaveral Space Force Station

Loading…

Próximas Passagens (próximas 24 horas)

TLE

AtualizadoSource: CelesTrak SupGP

Época: Sep 14, 2026, 15:58 UTC

1 69363C 26123L   26257.66576389  .00069803  00000+0  20626-2 0  2573
2 69363  53.1583 169.0895 0001260  88.7022 255.7172 15.34351467    17

Acompanhe STARLINK-37582 em tempo real com AllMySat

Download on the App Store